Regional Weather Roundup
Issued by NWS Pendleton, OR

Home | Current Version | Previous Version | Text Only | Print | Product List | Glossary On
Versions: 1 2 3 4 5 6 7 8 9 10 11 12 13 14 15 16 17 18 19 20 21 22 23 24 25 26 27 28 29 30 31 32 33 34 35 36 37 38 39 40 41 42 43 44 45 46 47 48 49 50
000
ASUS46 KPDT 042104
RWRPDT
PENDLETON REGIONAL WEATHER ROUNDUP
NATIONAL WEATHER SERVICE PENDLETON OREGON
200 PM PDT FRI SEP 4 2015

NOTE: FAIR INDICATES FEW OR NO CLOUDS BELOW 12,000 FEET WITH NO
SIGNIFICANT WEATHER AND/OR OBSTRUCTIONS TO VISIBILITY.

# INDICATES UNOFFICIAL STATION AND DATA

WAZ520-042210-
EAST SLOPES OF WASHINGTON CASCADES

CITY            SKY/WX      TMP DP  RH  WIND    PRES   REMARKS
#BULLFROG       N/A         60  42  51  CALM    N/A
#BULLFROG 2SW   N/A         58  39  49  N1      27.53F
#BUMPING DAM    N/A         50  N/A N/A CALM    N/A
#CLE ELUM HS    N/A         60  39  46  SE2     29.89F
#CLIFFDEL 2NW   N/A         63  35  35  SE1     N/A
#EASTON DOT     N/A         53  40  61  CALM    N/A
#ELK HTS DOT    N/A         58  58  100 NE2     N/A
#GLENWOOD       N/A         63  42  46  CALM    29.88F
#MANASTASH CYN  N/A         59  33  37  NW3     29.90F
#NELSON 3SW     N/A         55  43  64  CALM    30.11S
#NILE           N/A         61  35  38  NE7     29.16F
#PEOH POINT     N/A         53  38  57  E2      N/A
#RONALD 2NW     N/A         58  39  49  E2      29.80F
#SNOWDEN        N/A         60  20  21  NW3     N/A
#SOUTH BLEWITT  N/A         48  44  86  CALM    N/A
#TEANAWAY 4NE   N/A         57  40  53  CALM    N/A
#TROUT LAKE 1NE N/A         60  38  44  CALM    29.88F
$$

WAZ521-042210-
SIMCOE HIGHLANDS

CITY            SKY/WX      TMP DP  RH  WIND    PRES   REMARKS
#BICKLETON HS   N/A         57  28  33  NE10    N/A
#SATUS PASS DOT N/A         41  40  96  CALM    N/A
#CENTERVILLE 4W N/A         66  39  37  W2      29.64F
#CENTERVILLE 1SWN/A         64  38  38  SW6     29.83F
#GOLDENDALE     N/A         64  36  35  SE2     N/A
#GOLDENDALE 1NE N/A         65  27  24  W3      N/A
#GOLDENDALE 5WNWN/A         65  39  38  E3      29.84F
#GOODNOE HILLS  N/A         70  42  36  E7      N/A
#LYLE 6NE       N/A         61  41  48  S7      29.85F
$$

WAZ026-042210-
KITTITAS VALLEY

CITY            SKY/WX      TMP DP  RH  WIND    PRES   REMARKS
ELLENSBURG AP   CLOUDY      66  33  29  NW6     29.90F
#ELLENSBURG CWU N/A         63  40  43  N6      29.84F
#ELLENSBURG 3NE N/A         61  39  44  N1      29.92F
#ELLENSBURG 1E  N/A         61  39  44  CALM    N/A
#KITTITAS 4N    N/A         62  37  39  N5      29.90F
#KITTITAS 3S    N/A         61  40  46  CALM    29.88F
#MANASTASH RDG  N/A         60  60  100 N6      N/A
#ROCKY CYN DOT  N/A         59  39  47  NE2     N/A
#RYEGRASS DOT   N/A         61  37  41  E8      N/A
#THORP 6N       N/A         57  39  51  N12     29.93F
$$

WAZ027-042210-
YAKIMA VALLEY

CITY            SKY/WX      TMP DP  RH  WIND    PRES   REMARKS
SUNNYSIDE AP    PTCLDY      66  47  50  W10     29.87F
YAKIMA AIRPORT  MOCLDY      67  35  30  W3      29.90F
YAKIMA-VAGABOND MOCLDY      62  40  44  W6      29.89F
#DONALD 2NE     N/A         68  28  22  SW3     28.73F
#GRANDVIEW      N/A         67  38  34  NW1     29.87F
#MABTON         N/A         67  43  42  N3      29.87F
#MOXEE 2E       N/A         63  22  21  W6      29.82F
#NACHES 2SW     N/A         64  39  40  NE6     29.92F
#PARKER DOT     N/A         64  39  40  E2      N/A
#SELAH 8E       N/A         61  34  36  W6      N/A
#TERRACE HTS    N/A         66  41  40  CALM    29.84F
#TOPPENISH      N/A         64  42  45  NW8     29.80S
#I82 S UMTANUM RN/A         60  39  46  SW5     N/A
#UNION GAP DOT  N/A         63  39  41  NW2     N/A
#WAPATO 4NE     N/A         68  28  22  SW3     28.73F
#W YAKIMA       N/A         65  39  38  SE1     29.87F
#WHITE SWAN 5E  N/A         64  41  43  N2      29.89F
#WILEY CITY 3W  N/A         63  33  32  CALM    29.88F
#ZILLAH DOT     N/A         64  40  41  W12     N/A
$$

WAZ028-042210-
LOWER COLUMBIA BASIN...WASHINGTON

CITY            SKY/WX      TMP DP  RH  WIND    PRES   REMARKS
PASCO           PTCLDY      72  41  33  N9      29.86F
#BENTON CITY    N/A         67  38  34  E3      29.76F
#CONNELL 5N     N/A         71  35  27  E2      29.84F
#CONNELL 5NW    N/A         68  39  35  CALM    29.82F
#ELTOPIA 6NW    N/A         71  45  39  NW7     28.84F
#KAHLOTUS       N/A         67  37  33  SE8     29.84F
#KENNEWICK      N/A         58  39  49  N1      27.53F
#KENNEWICK 3S   N/A         68  41  37  CALM    29.86F
#PASCO-BROADMOORN/A         73  38  28  NW1     29.75F
#PATERSON       N/A         68  43  40  SW5     29.84F
#PROSSER DOT    N/A         69  40  35  SW1     N/A
#PROSSER        N/A         67  38  34  CALM    29.86F
#SAGEMOOR 2W    N/A         66  43  43  W7      29.71F
#TOUCHET 2S     N/A         68  44  42  NW7     29.84F
#WEST PASCO     N/A         70  45  41  NE2     29.84F
$$

WAZ029-042210-
FOOTHILLS OF THE BLUES...WASHINGTON

CITY            SKY/WX      TMP DP  RH  WIND    PRES   REMARKS
WALLA WALLA AP  PTCLDY      68  36  31  S5      29.85F
#DAYTON SCHOOL  N/A         67  35  30  N6      29.83F
#LOWDEN 2SE     N/A         68  41  37  NW7     29.81F
#PLEASANT VIEW 1N/A         68  36  31  N5      29.87F
#PRESCOTT       N/A         70  40  34  N1      29.83F
#SUDBURY        N/A         70  N/A N/A CALM    N/A
#WHITMAN COLLEGEN/A         67  40  37  N2      29.88F
#WAITSBURG 5S   N/A         68  38  33  W3      29.91F
#WAITSBURG 8N   N/A         74  20  13  N8      29.71S
#WALLA WALLA U  N/A         69  43  39  SW7     29.82F
#WHITMAN MISSIONN/A         68  45  44  W6      29.85F
$$

WAZ030-042210-
BLUE MOUNTAINS...WASHINGTON

CITY            SKY/WX      TMP DP  RH  WIND    PRES   REMARKS
#DIXIE 5SE      N/A         59  38  45  NW9     29.80F
#SKI BLUEWOOD   N/A         56  37  49  N7      29.86F
$$

ORZ009-041-WAZ024-042210-
COLUMBIA RIVER GORGE

CITY            SKY/WX      TMP DP  RH  WIND    PRES   REMARKS
THE DALLES AP   PTCLDY      72  33  24  NW9     29.86F
#ARLINGTON AIRPON/A         65  40  40  E2      29.83S
#MARYHILL       N/A         68  36  31  SE7     N/A
#MOSIER 1S      N/A         64  28  25  NW2     29.90S

$$

ORZ510-042210-
NORTH CENTRAL OREGON

CITY            SKY/WX      TMP DP  RH  WIND    PRES   REMARKS
#CHENOWITH 1W   N/A         62  38  41  W15     N/A
#DUFUR 9E       N/A         58  34  40  E5      29.92F
#GRASS VALLEY 1SN/A         63  38  39  N2      29.90F
#MAUPIN SCHOOL  N/A         67  38  34  N5      29.88F
#MORO SCHOOL    N/A         63  44  50  CALM    29.90F
#SHANIKO 4NW    N/A         55  32  41  N13     29.90F
#TYGH VALLEY 2NEN/A         68  39  35  NE6     29.84F
#WAPANITIA AIRPON/A         62  35  36  NE2     29.86F
#WASCO 5NE      N/A         66  40  38  CALM    29.86F
$$

ORZ511-042210-
CENTRAL OREGON

CITY            SKY/WX      TMP DP  RH  WIND    PRES   REMARKS
BEND AIRPORT    THUNDER     52  32  46  NW14G25 29.89S
PRINEVILLE AP   MOCLDY      57  34  42  N12     29.86F
REDMOND AIRPORT CLOUDY      59  32  36  W20G25  29.87F
#BEND 1SW       N/A         44  41  89  N1      N/A
#BEND-AWBREY    N/A         48  38  68  W3      29.88R
#BEND-KIM LN    N/A         55  37  51  W6      29.87R
#CULVER         N/A         60  36  41  NW5     29.84F
#LAKE BILLY CHINN/A         52  19  27  W13     29.96R
#MADRAS         N/A         63  36  36  N5      N/A
#POWELL BUTTE 3EN/A         57  40  53  NW7     N/A
#POWELL BUTTE   N/A         65  40  40  NE8     29.50F
#PRINEVILLE 3N  N/A         56  40  55  N12     29.79F
#WARM SPRINGS   N/A         65  38  37  S5      29.84F

$$


ORZ509-042210-
EAST SLOPES OF OREGON CASCADES

CITY            SKY/WX      TMP DP  RH  WIND    PRES   REMARKS
#CAMP SHERMAN   N/A         55  36  49  CALM    29.90R
#LA PINE 4NW    N/A         51  34  52  NW1     29.93S
#SISTERS AIRPOR N/A         47  44  89  N2      30.17S
#SISTERS 3N     N/A         45  38  76  N2      29.99R
#SUNRIVER       N/A         42  40  93  W1      29.79R
#TUMALO 3W      N/A         45  38  76  W8      29.78R

$$

ORZ044-042210-
LOWER COLUMBIA BASIN...OREGON

CITY            SKY/WX      TMP DP  RH  WIND    PRES   REMARKS
HERMISTON       PTCLDY      69  36  30  NE5     29.86F
#BOARDMAN SCHOOLN/A         69  39  33  CALM    29.87F
#ECHO 8SW       N/A         66  40  38  CALM    29.88F
#IONE SCHOOL    N/A         63  38  39  CALM    29.85F
#IRRIGON 4NW    N/A         72  40  31  S6      N/A
#UMATILLA SCHOOLN/A         73  48  41  CALM    29.88F
#UMATILLA       N/A         71  38  30  NE2     29.77F
$$

ORZ507-042210-
NORTHERN FOOTHILLS OF THE BLUES

CITY            SKY/WX      TMP DP  RH  WIND    PRES   REMARKS
PENDLETON AIRPT MOCLDY      63  36  36  W7      29.86F
#ADAMS 3WNW     N/A         63  37  38  N5      29.87S
#ATHENA         N/A         61  38  42  CALM    29.89S
#CAYUSE         N/A         61  40  46  SW7     29.84F
#HELIX SCHOOL   N/A         61  38  42  N6      29.86F
#HELIX 3N       N/A         61  37  41  N8      29.85F
#HOLDMAN 5SE    N/A         64  38  38  N5      29.88S
#HOLDMAN 6E     N/A         63  36  36  SE5     29.66F
#M-F GROVE ELEM N/A         65  37  35  N2      29.85F
#M-FREEWATER 5SEN/A         64  43  46  W1      29.86F
#PENDLETON DNTN N/A         66  38  36  CALM    29.90S
#PDT AQUATIC CTRN/A         64  40  41  SW7     29.83F
#PDT SUNRIDGE   N/A         64  40  41  SW3     29.88F
#PENDLETON 7NW  N/A         65  45  48  W8      28.84R
#PILOT ROCK     N/A         60  37  42  CALM    29.90F
#TUTUILLA       N/A         63  40  43  S2      29.88F
#UMAPINE 2E     N/A         66  47  50  W2      29.83F
#WESTON SCHOOL  N/A         60  36  41  E1      29.81S

$$

ORZ508-042210-
SOUTHERN FOOTHILLS OF THE BLUES

CITY            SKY/WX      TMP DP  RH  WIND    PRES   REMARKS
#AJAX           N/A         62  33  34  N5      29.84F
#CONDON 5W      N/A         52  35  52  N5      29.88
#FOSSIL SCHOOL  N/A         66  51  58  CALM    29.94S
#HEPPNER EOC    N/A         59  39  47  W3      29.80F
#HEPPNER 4NE    N/A         55  37  51  W1      29.87F
#LEXINGTON 2SE  N/A         62  40  44  CALM    29.86F
#OLEX 4N        N/A         63  38  39  NE5     29.88F
#RUGGS 5NE      N/A         57  36  45  N8      30.07F
#RUGGS 2SW      N/A         56  38  51  CALM    29.89F

$$

ORZ502-503-042210-
BLUE MOUNTAINS

CITY            SKY/WX      TMP DP  RH  WIND    PRES   REMARKS
MEACHAM         CLOUDY      53  35  50  VRB3    29.89F
#HEPPNER 15SE   N/A         49  41  74  CALM    29.80F
#LONG CREEK HS  N/A         46  45  96  CALM    29.88R
#PIKES PEAK     N/A         55  37  51  W1      27.99S
#TOLLGATE       N/A         48  38  68  S2      29.78S
#TROY SCHOOL    N/A         70  43  38  N3      29.64F
#UKIAH          N/A         53  37  54  SW2     29.95R
#WESTON 4E      N/A         56  39  53  CALM    29.81R
$$

ORZ505-042210-
JOHN DAY BASIN

CITY            SKY/WX      TMP DP  RH  WIND    PRES   REMARKS
JOHN DAY        LGT DRIZZLE 47  41  79  CALM    29.94S
#JOHN DAY KJDY  N/A         48  36  63  CALM    29.90F
#DAYVILLE SCHOOLN/A         48  42  80  CALM    29.90R
#MITCHELL       N/A         55  39  55  CALM    30.05F
#MITCHELL 8NW   N/A         54  35  48  E5      30.06F
#MONUMENT HS    N/A         50  41  71  S3      29.93S
#MT. VERNON 5SE N/A         43  38  82  E1      29.89R
#SPRAY SCHOOL   N/A         57  N/A N/A SE7     N/A
$$

ORZ506-042210-
OCHOCO AND JOHN DAY HIGHLANDS

CITY            SKY/WX      TMP DP  RH  WIND    PRES   REMARKS
#PAULINA SCHOOL N/A         56  36  47  N3      29.85F
#PINE MTN OBS   N/A         40  32  73  NW1     N/A
#PRAIRIE CITY   N/A         45  42  89  CALM    29.99S
#SENECA         N/A         42  N/A N/A N1      N/A
#SENECA 9NW     N/A         41  39  93  CALM    29.91R
$$

ORZ049-042210-
GRANDE RONDE VALLEY

CITY            SKY/WX      TMP DP  RH  WIND    PRES   REMARKS
LA GRANDE       MOCLDY      63  34  34  W22G25  29.83F
#COVE           N/A         60  45  58  CALM    29.85F
#COVE SCHOOL    N/A         61  42  50  CALM    29.86F
#ELGIN 3N       N/A         68  29  23  CALM    29.80F
#ELGIN 1E       N/A         65  36  34  CALM    N/A
#ISLAND CITY 4N N/A         63  51  65  CALM    29.97S
#LA GRANDE ELEM N/A         58  39  49  W14     29.87S
#UNION 1S       N/A         64  39  40  N7      29.70F
$$

ORZ050-042210-
WALLOWA COUNTY

CITY            SKY/WX      TMP DP  RH  WIND    PRES   REMARKS
#ENTERPRISE HS  N/A         58  42  55  S1      29.86F
#IMNAHA SCHOOL  N/A         69  44  40  N10     29.80F
#IMNAHA 10S     N/A         67  42  40  NE3     29.82F
#JOSEPH 3N      N/A         56  38  51  SW6     29.88F
#JOSEPH 3W      N/A         49  44  83  CALM    29.74F
#LOSTINE        N/A         62  39  43  CALM    29.60F
#MT HOWARD 8000 N/A         39  33  79  E1      29.94F
#PROMISE 1S     N/A         58  39  49  SW9     29.93S
#WALLOWA SCHOOL N/A         66  37  34  CALM    29.80F



$$



USA.gov is the U.S. government's official web portal to all federal, state and local government web resources and services.